Tracking 30995 objects as of 5-Jul-2025
HD Live streaming from Space Station
objects crossing your sky now

STARLINK-3135

Track STARLINK-3135 now!
10-day predictions
STARLINK-3135 is classified as:


NORAD ID: 49424
Int'l Code: 2021-104S
Perigee: 546.1 km
Apogee: 547.7 km
Inclination: 53.2 °
Period: 95.4 minutes
Semi major axis: 6917 km
RCS: Unknown
Launch date: November 13, 2021
Source: United States (US)
Launch site: AIR FORCE EASTERN TEST RANGE (AFETR)
Your satellite tracking list
Your tracking list is empty




NASA's NSSDC Master Catalog

Two Line Element Set (TLE):
1 49424U 21104S   25186.48190057 -.00000866  00000-0 -36326-4 0  9993
2 49424  53.2173 258.8816 0001221  87.1741 272.9390 15.08835979201301
Source of the keplerian elements: AFSPC